DW8176 Weather Reports


time (UTC)temp
C
wind
direction
speed
KPH
gust
KPH
rain 1hr
cm
rain 24hr
cm
rain mn
cm
humidity
%
barometer
mb
20211026180152 21 359 3.2 16.1 0.00 1.14 0.86 59 1000.7
20211026170151 21 272 0.0 17.7 0.00 1.17 0.86 62 1001.5
20211026160151 20 255 1.6 12.9 0.00 1.17 0.86 69 1002.4
20211026150151 18 241 3.2 14.5 0.00 1.17 0.86 77 1003.0
20211026140151 17 223 6.4 12.9 0.00 1.17 0.86 83 1003.2
20211026130151 17 265 6.4 19.3 0.00 1.17 0.86 87 1002.9
20211026120151 16 308 14.5 14.5 0.00 1.17 0.86 90 1001.7
20211026110151 16 354 0.0 20.9 0.00 1.17 0.86 89 1001.8
20211026100151 17 270 3.2 20.9 0.00 1.17 0.86 90 1001.6
20211026090151 17 260 1.6 20.9 0.00 1.17 0.86 90 1001.1
20211026080151 18 216 3.2 22.5 0.00 1.17 0.86 93 1000.6
20211026070151 19 270 4.8 14.5 0.00 1.17 0.86 93 1000.8
20211026060151 19 235 1.6 19.3 0.23 1.17 0.86 94 1000.9
20211026050151 19 167 0.0 14.5 0.64 0.94 0.64 93 1002.5
20211026040151 20 189 6.4 14.5 0.03 0.30 0.00 89 1004.5
20211026030151 20 125 0.0 12.9 0.00 0.28 0.28 87 1005.1
20211026020151 20 124 0.0 14.5 0.00 0.28 0.28 86 1006.1
20211026010151 20 112 1.6 12.9 0.00 0.28 0.28 87 1006.2
20211026000151 20 180 1.6 11.3 0.00 0.28 0.28 85 1006.8
20211025230151 21 122 0.0 11.3 0.00 0.28 0.28 83 1008.3
20211025220151 22 183 4.8 14.5 0.00 0.28 0.28 81 1009.0
20211025210150 22 131 0.0 6.4 0.00 0.28 0.28 81 1009.5
20211025200151 22 172 0.0 9.7 0.00 0.28 0.28 82 1010.1
20211025190150 20 106 0.0 22.5 0.25 0.28 0.28 90 1010.9